Home > Weather > Belém > Past weeks

Flag for Brazil Weather for the Past 2 Weeks in Belém, Pará, Brazil

Now
77 °F

Passing clouds.


Feels Like: 78 °F
Forecast: 75 / 86 °F
Wind: 3 mph from Southeast

Location: Belem Aeroporto

Current Time: Feb 11, 2016 at 10:39:34 PM

Latest Report: Feb 11, 2016 at 10:00 PM


Visibility: N/A

Pressure: 29.89 "Hg

Humidity: 89%

Dew point: 73 °F

Location of BelémLocation

Historic Weather in Belém — Graph

°F

Belém Temperature Yesterday

Maximum temperature yesterday: 90 °F (at 12:00 PM)
Minimum temperature yesterday: 73 °F (at 5:00 PM)
Average temperature yesterday: 79 °F

High & Low Weather Summary for the Past Weeks

 TemperatureHumidityPressure
High91 °F (Feb 9, 1:00 PM)100% (Feb 4, 6:00 AM)29.98 "Hg (Feb 4, 6:00 AM)
Low41 °F (Feb 5, 3:00 PM)56% (Feb 9, 1:00 PM)29.77 "Hg (Feb 3, 5:00 PM)
Average78 °F86%29.88 "Hg
* Reported Jan 27 9:00 PM — Feb 11 9:00 PM, Belém, Weather by CustomWeather, © 2016

Note: Actual official high and low records may vary slightly from our data, if they occured in-between our weather recording intervals... More about our weather records

Advertising

Belém Weather History for the Previous 24 Hours

 ConditionsComfort  
Time TempWeatherWind HumidityBarometerVisibility
9:00 PM
Thu, Feb 11
75 °FPassing clouds.6 mph94%29.89 "HgN/A
8:00 PM77 °FPassing clouds.2 mph89%29.86 "HgN/A
6:00 PM75 °FLight rain. Broken clouds.6 mph94%29.83 "Hg4 mi
5:00 PM73 °FLight rain. Broken clouds.5 mph100%29.83 "Hg6 mi
4:00 PM82 °FThunderstorms. Partly sunny.10 mph74%N/A1 mi
3:00 PM84 °FScattered clouds.10 mph79%29.83 "HgN/A
2:00 PM81 °FLight rain. Broken clouds.9 mph89%29.86 "HgN/A
1:45 PM82 °FRain. Broken clouds.8 mph84%N/A1 mi
1:00 PM86 °FPartly sunny.9 mph75%29.89 "HgN/A
12:00 PM88 °FPartly sunny.10 mph66%29.92 "HgN/A
11:00 AM86 °FPartly sunny.12 mph70%29.92 "HgN/A
10:00 AM84 °FBroken clouds.9 mph74%29.95 "HgN/A
9:00 AM82 °FScattered clouds.5 mph84%29.95 "HgN/A
8:00 AM79 °FPartly sunny.3 mph89%29.92 "HgN/A
7:00 AM77 °FPartly sunny.2 mph89%29.89 "HgN/A
6:00 AM75 °FPassing clouds.2 mph94%29.86 "HgN/A
5:00 AM77 °FPassing clouds.2 mph89%29.86 "HgN/A
4:00 AM75 °FPassing clouds.No wind94%29.86 "HgN/A
3:00 AM77 °FPassing clouds.1 mph89%29.86 "HgN/A
2:00 AM77 °FClear.2 mph89%29.89 "Hg10 mi
1:00 AM75 °FPassing clouds.3 mph94%29.92 "HgN/A
12:00 AM77 °FPartly cloudy.5 mph89%29.95 "HgN/A
11:00 PM
Wed, Feb 10
77 °FPassing clouds.5 mph89%29.95 "HgN/A
10:00 PM75 °FPartly cloudy.2 mph94%29.95 "HgN/A
Weather by CustomWeather, © 2016

See weather overviewHow to use our weather pages